Regional Weather Roundup
Issued by NWS

Home | Current Version | Previous Version | Graphics & Text | Print | Product List | Glossary On
Versions: 1 2 3 4 5 6 7 8 9 10 11 12 13 14 15 16 17 18 19 20 21 22 23 24 25 26 27 28 29 30 31 32 33 34 35 36 37 38 39 40 41 42 43 44 45 46 47 48 49 50
000
ASUS43 KOAX 241502
RWRNE

WEATHER ROUNDUP FOR NEBRASKA
NATIONAL WEATHER SERVICE OMAHA NE
1000 AM CDT SAT JUN 24 2017

NOTES: SATELLITE DATA IS BEING USED TO AUGMENT CLOUD COVER ABOVE
       12000 FEET.
       "FAIR" INDICATES FEW OR NO CLOUDS BELOW 12,000 FEET WITH NO
       SIGNIFICANT WEATHER AND/OR OBSTRUCTIONS TO VISIBILITY.

  * THESE STATIONS DO NOT REPORT WEATHER SUCH AS RAIN...SNOW OR FOG.

NEZ001>004-019>022-054>056-241600-
NEBRASKA PANHANDLE

CITY           SKY/WX    TMP DP  RH WIND       PRES   REMARKS
SCOTTSBLUFF    CLOUDY    62  37  39 CALM      30.31S
ALLIANCE       SUNNY     65  34  31 MISG      30.30R
CHADRON        SUNNY     66  34  30 W9        30.29S
GORDON         FAIR      63  34  34 W8        30.29R
KIMBALL        CLOUDY    62  42  47 S5        30.34R
SIDNEY         CLOUDY    64  36  35 S9        30.32S
$$

NEZ057>060-069>072-079>082-241600-
SOUTHWEST NEBRASKA

CITY           SKY/WX    TMP DP  RH WIND       PRES   REMARKS
NORTH PLATTE   PTSUNNY   64  44  48 SW6       30.29S
IMPERIAL       CLOUDY    61  42  49 SE5       30.31S
LEXINGTON      CLOUDY    64  47  54 W5        30.28R
MCCOOK         CLOUDY    61  43  51 CALM      30.30R
OGALLALA       CLOUDY    65  36  33 S7        30.31R
$$

NEZ005>010-023>029-035>040-094-241600-
NORTH CENTRAL NEBRASKA

CITY           SKY/WX    TMP DP  RH WIND       PRES   REMARKS
VALENTINE      SUNNY     70  29  21 NW15G21   30.24S
AINSWORTH      SUNNY     67  35  31 W17       30.24S
BROKEN BOW     CLOUDY    65  43  44 W8        30.26R
O`NEILL        SUNNY     68  40  36 W14G20    30.21S
ORD            SUNNY     68  38  33 W12       30.22F
THEDFORD       CLOUDY    69  34  27 W8G17     30.27S
$$

NEZ041-046>049-061>064-073>077-083>087-241600-
SOUTH CENTRAL NEBRASKA

CITY           SKY/WX    TMP DP  RH WIND       PRES   REMARKS
GRAND ISLAND   MOSUNNY   67  43  41 W7        30.25R
AURORA         SUNNY     68  45  43 SW6       30.24S
HASTINGS       SUNNY     68  41  37 SW7       30.26S
HEBRON         SUNNY     71  33  24 CALM      30.25R
HOLDREGE       CLOUDY    65  39  37 S7        30.28R
KEARNEY *      MOSUNNY   68  39  34 SW5       30.27S
$$

NEZ011>018-030>034-042>045-241600-
NORTHEAST NEBRASKA

CITY           SKY/WX    TMP DP  RH WIND       PRES   REMARKS
NORFOLK        SUNNY     69  38  32 W15       30.18S
ALBION         SUNNY     69  37  30 W10       30.21F
BLAIR          SUNNY     66  46  47 W6        30.18S
FREMONT        SUNNY     67  43  41 W10       30.19S
TEKAMAH        SUNNY     70  43  37 W13       30.16F
WAYNE          SUNNY     70  39  32 W18       30.16S
$$

NEZ050>053-065>068-078-088>093-241600-
SOUTHEAST NEBRASKA

CITY           SKY/WX    TMP DP  RH WIND       PRES   REMARKS
LINCOLN        SUNNY     70  46  42 W7        30.22R
OMAHA EPPLEY   SUNNY     69  44  40 W8        30.18S
BEATRICE       SUNNY     69  48  47 SW6       30.24R
FALLS CITY     SUNNY     69  45  41 W5        30.22R
NEBRASKA CITY  SUNNY     65  52  62 SW7       30.21R
PLATTSMOUTH    SUNNY     67  45  45 W7        30.20R
$$

NEZ044-045-051>053-067-241600-
OMAHA AREA

CITY           SKY/WX    TMP DP  RH WIND       PRES   REMARKS
OMAHA EPPLEY   SUNNY     69  44  40 W8        30.18S
BLAIR          SUNNY     66  46  47 W6        30.18S
FREMONT        SUNNY     67  43  41 W10       30.19S
MILLARD        SUNNY     70  46  42 W8        30.19R
OFFUTT AFB     SUNNY     67  45  44 NW8       30.18S
PLATTSMOUTH    SUNNY     67  45  45 W7        30.20R
WAHOO          FAIR      71  37  29 W14       30.19F
$$




USA.gov is the U.S. government's official web portal to all federal, state and local government web resources and services.